WAT3174 HECA-EDDK

Flight info

Callsign WAT3174
Flight time N/A
Altitude 34000
Route CVO L617 TANSA UL613 KOR DCT TUMBO DCT RODON DCT VAKSU DCT MONFA DCT BAKOR DCT SOTOV DCT KPT L608 KOVAN T844 ASKIK T840 GULKO GULKO1C
Aircraft A321/M-SDE3FGHIRWY/LB1

Departure

Time 2026-05-06 09:37
Airport Cairo International Airport (HECA)

Arrival

Time N/A
Airport Cologne Bonn Airport (EDDK)
Time Latitude Longitude Altitude Speed Heading
2026-05-06 09:25 30.10833 31.39736 385 ft 2 kts 217°
2026-05-06 09:25 30.10846 31.39746 385 ft 2 kts 202°
2026-05-06 09:26 30.10861 31.39751 385 ft 2 kts 189°
2026-05-06 09:26 30.10877 31.39752 385 ft 2 kts 175°
2026-05-06 09:26 30.10888 31.39751 385 ft 0 kts 166°
2026-05-06 09:26 30.10893 31.39749 385 ft 0 kts 164°
2026-05-06 09:31 30.10885 31.39751 385 ft 2 kts 164°
2026-05-06 09:31 30.10866 31.39758 385 ft 3 kts 164°
2026-05-06 09:32 30.10838 31.39767 385 ft 4 kts 164°
2026-05-06 09:32 30.10802 31.39778 385 ft 5 kts 166°
2026-05-06 09:32 30.10752 31.39793 385 ft 8 kts 166°
2026-05-06 09:32 30.10690 31.39811 385 ft 9 kts 166°
2026-05-06 09:33 30.10621 31.39831 385 ft 10 kts 165°
2026-05-06 09:33 30.10547 31.39853 385 ft 11 kts 165°
2026-05-06 09:33 30.10468 31.39875 385 ft 11 kts 174°
2026-05-06 09:33 30.10394 31.39838 385 ft 12 kts 225°
2026-05-06 09:34 30.10338 31.39761 385 ft 12 kts 230°
2026-05-06 09:34 30.10279 31.39680 385 ft 13 kts 230°
2026-05-06 09:34 30.10225 31.39607 385 ft 10 kts 230°
2026-05-06 09:34 30.10159 31.39570 385 ft 11 kts 168°
2026-05-06 09:35 30.10092 31.39624 385 ft 12 kts 139°
2026-05-06 09:35 30.10028 31.39690 386 ft 12 kts 128°
2026-05-06 09:35 30.10009 31.39787 386 ft 12 kts 85°
2026-05-06 09:35 30.10033 31.39886 386 ft 13 kts 61°
2026-05-06 09:36 30.10151 31.40063 386 ft 57 kts 48°
2026-05-06 09:36 30.10575 31.40622 386 ft 121 kts 49°
2026-05-06 09:36 30.11251 31.41524 387 ft 174 kts 47°
2026-05-06 09:36 30.12100 31.42636 752 ft 189 kts 47°
2026-05-06 09:37 30.12981 31.43786 1433 ft 192 kts 47°
2026-05-06 09:37 30.13855 31.44930 2139 ft 192 kts 46°
2026-05-06 09:37 30.14793 31.46022 2739 ft 194 kts 32°
2026-05-06 09:37 30.16085 31.46394 3177 ft 197 kts 352°
2026-05-06 09:38 30.17292 31.45658 3571 ft 206 kts 311°
2026-05-06 09:38 30.17896 31.44144 3955 ft 217 kts 283°
2026-05-06 09:38 30.17983 31.42393 4387 ft 226 kts 265°
2026-05-06 09:38 30.17843 31.40530 4692 ft 241 kts 275°
2026-05-06 09:39 30.18284 31.38622 5019 ft 252 kts 303°
2026-05-06 09:39 30.19428 31.37063 5492 ft 259 kts 315°
2026-05-06 09:39 30.20706 31.35596 6092 ft 264 kts 315°
2026-05-06 09:39 30.22008 31.34098 6749 ft 266 kts 315°
2026-05-06 09:40 30.23323 31.32572 7389 ft 268 kts 315°
2026-05-06 09:40 30.24622 31.31055 8035 ft 269 kts 314°
2026-05-06 09:40 30.27259 31.27963 9281 ft 272 kts 314°
2026-05-06 09:41 30.28544 31.26382 9855 ft 274 kts 309°
2026-05-06 09:41 30.29752 31.24642 10434 ft 277 kts 307°
2026-05-06 09:41 30.30953 31.22849 10723 ft 290 kts 307°
2026-05-06 09:41 30.32202 31.20986 10982 ft 304 kts 307°
2026-05-06 09:42 30.33548 31.18988 11235 ft 318 kts 307°
2026-05-06 09:42 30.34927 31.16948 11465 ft 331 kts 307°
2026-05-06 09:42 30.36366 31.14826 11702 ft 343 kts 307°
2026-05-06 09:42 30.37855 31.12633 12124 ft 349 kts 307°
2026-05-06 09:43 30.39357 31.10421 12679 ft 351 kts 307°
2026-05-06 09:43 30.40870 31.08195 13190 ft 353 kts 307°
2026-05-06 09:43 30.42388 31.05959 13682 ft 356 kts 307°
2026-05-06 09:43 30.43920 31.03702 14170 ft 359 kts 307°
2026-05-06 09:44 30.45467 31.01423 14681 ft 361 kts 307°
2026-05-06 09:44 30.47026 30.99123 15174 ft 363 kts 307°
2026-05-06 09:44 30.48577 30.96835 15664 ft 365 kts 307°
2026-05-06 09:44 30.50164 30.94490 16115 ft 368 kts 307°
2026-05-06 09:45 30.51738 30.92163 16565 ft 371 kts 307°
2026-05-06 09:45 30.53331 30.89808 17034 ft 373 kts 307°
2026-05-06 09:45 30.54938 30.87431 17498 ft 374 kts 307°
2026-05-06 09:45 30.56530 30.85075 17925 ft 377 kts 306°
2026-05-06 09:46 30.58158 30.82665 18378 ft 379 kts 306°
2026-05-06 09:46 30.59785 30.80251 18813 ft 381 kts 306°
2026-05-06 09:46 30.61416 30.77831 19232 ft 383 kts 306°
2026-05-06 09:46 30.63058 30.75394 19628 ft 386 kts 306°
2026-05-06 09:47 30.64724 30.72923 20028 ft 388 kts 306°
2026-05-06 09:47 30.66383 30.70458 20442 ft 389 kts 306°
2026-05-06 09:47 30.68045 30.67988 20851 ft 391 kts 306°
2026-05-06 09:47 30.69717 30.65500 21228 ft 393 kts 306°
2026-05-06 09:48 30.71401 30.62994 21586 ft 395 kts 306°
2026-05-06 09:48 30.73094 30.60473 21956 ft 397 kts 306°
2026-05-06 09:48 30.74793 30.57942 22318 ft 399 kts 306°
2026-05-06 09:48 30.76503 30.55390 22645 ft 401 kts 306°
2026-05-06 09:49 30.78215 30.52836 22988 ft 403 kts 306°
2026-05-06 09:49 30.79920 30.50289 23315 ft 405 kts 306°
2026-05-06 09:49 30.81647 30.47710 23629 ft 407 kts 306°
2026-05-06 09:49 30.83402 30.45087 23970 ft 408 kts 306°
2026-05-06 09:50 30.85124 30.42509 24294 ft 409 kts 306°
2026-05-06 09:50 30.86882 30.39879 24613 ft 410 kts 306°
2026-05-06 09:50 30.88640 30.37244 24889 ft 412 kts 306°
2026-05-06 09:50 30.90390 30.34619 25163 ft 414 kts 305°
2026-05-06 09:51 30.92156 30.31970 25462 ft 415 kts 305°
2026-05-06 09:51 30.93915 30.29329 25748 ft 417 kts 305°
2026-05-06 09:51 30.95687 30.26667 26044 ft 418 kts 305°
2026-05-06 09:51 30.97485 30.23964 26325 ft 419 kts 305°
2026-05-06 09:52 30.99268 30.21284 26596 ft 420 kts 305°
2026-05-06 09:52 31.01058 30.18588 26856 ft 422 kts 305°
2026-05-06 09:52 31.02838 30.15907 27105 ft 423 kts 305°
2026-05-06 09:52 31.04643 30.13186 27361 ft 424 kts 305°
2026-05-06 09:53 31.06454 30.10453 27637 ft 425 kts 305°
2026-05-06 09:53 31.08253 30.07739 27984 ft 423 kts 305°
2026-05-06 09:53 31.10021 30.05069 28344 ft 421 kts 305°
2026-05-06 09:53 31.11808 30.02369 28706 ft 420 kts 304°
2026-05-06 09:54 31.13596 29.99664 29053 ft 418 kts 304°
2026-05-06 09:54 31.15372 29.96975 29357 ft 417 kts 304°
2026-05-06 09:54 31.17135 29.94303 29656 ft 417 kts 304°
2026-05-06 09:54 31.18877 29.91663 29963 ft 415 kts 304°
2026-05-06 09:55 31.20647 29.88977 30273 ft 414 kts 304°
2026-05-06 09:55 31.22398 29.86319 30533 ft 413 kts 304°
2026-05-06 09:55 31.24145 29.83659 30723 ft 414 kts 304°
2026-05-06 09:55 31.25906 29.80984 30906 ft 416 kts 304°
2026-05-06 09:56 31.27654 29.78324 31113 ft 416 kts 304°
2026-05-06 09:56 31.29416 29.75640 31317 ft 416 kts 304°
2026-05-06 09:56 31.31170 29.72968 31492 ft 417 kts 304°
2026-05-06 09:56 31.32931 29.70283 31667 ft 418 kts 305°
2026-05-06 09:57 31.34710 29.67570 31847 ft 418 kts 304°
2026-05-06 09:57 31.36478 29.64873 32028 ft 419 kts 304°
2026-05-06 09:57 31.39995 29.59497 32115 ft 420 kts 305°
2026-05-06 09:58 31.43534 29.54082 32114 ft 419 kts 305°
2026-05-06 09:58 31.47086 29.48637 32123 ft 420 kts 305°
2026-05-06 09:59 31.50612 29.43224 32121 ft 420 kts 305°
2026-05-06 09:59 31.54154 29.37777 32116 ft 420 kts 305°
2026-05-06 10:00 31.57679 29.32348 32119 ft 420 kts 304°
2026-05-06 10:00 31.61133 29.26858 32117 ft 419 kts 303°
2026-05-06 10:01 31.64502 29.21320 32120 ft 419 kts 303°
2026-05-06 10:01 31.67903 29.15748 32116 ft 420 kts 303°
2026-05-06 10:02 31.71448 29.10308 32121 ft 421 kts 307°
2026-05-06 10:02 31.75444 29.05288 32118 ft 423 kts 313°
2026-05-06 10:03 31.79859 29.00732 32119 ft 425 kts 317°
2026-05-06 10:03 31.84437 28.96318 32118 ft 425 kts 317°
2026-05-06 10:04 31.89011 28.91912 32119 ft 424 kts 317°
2026-05-06 10:04 31.93543 28.87538 32117 ft 425 kts 317°
2026-05-06 10:05 31.98102 28.83131 32118 ft 424 kts 317°
2026-05-06 10:05 32.02667 28.78712 32112 ft 424 kts 317°
2026-05-06 10:06 32.07227 28.74289 32120 ft 424 kts 317°
2026-05-06 10:06 32.11787 28.69863 32113 ft 424 kts 317°
2026-05-06 10:07 32.16309 28.65467 32116 ft 424 kts 317°
2026-05-06 10:07 32.20841 28.61056 32118 ft 423 kts 317°
2026-05-06 10:08 32.25370 28.56639 32112 ft 422 kts 317°
2026-05-06 10:08 32.29891 28.52227 32111 ft 422 kts 317°
2026-05-06 10:09 32.34432 28.47789 32106 ft 422 kts 317°
2026-05-06 10:09 32.38937 28.43380 32112 ft 422 kts 317°
2026-05-06 10:10 32.43433 28.38974 32112 ft 422 kts 317°
2026-05-06 10:10 32.47951 28.34541 32112 ft 421 kts 317°
2026-05-06 10:11 32.52464 28.30105 32107 ft 421 kts 317°
2026-05-06 10:11 32.56939 28.25703 32114 ft 420 kts 317°
2026-05-06 10:12 32.61424 28.21283 32110 ft 421 kts 317°
2026-05-06 10:12 32.65939 28.16830 32112 ft 420 kts 317°
2026-05-06 10:13 32.70399 28.12423 32108 ft 420 kts 317°
2026-05-06 10:13 32.74886 28.07984 32115 ft 420 kts 317°
2026-05-06 10:14 32.79390 28.03522 32116 ft 419 kts 317°
2026-05-06 10:14 32.83853 27.99097 32112 ft 419 kts 317°
2026-05-06 10:15 32.88327 27.94651 32111 ft 419 kts 318°
2026-05-06 10:15 32.92786 27.90216 32114 ft 420 kts 318°
2026-05-06 10:16 32.97257 27.85764 32114 ft 420 kts 318°
2026-05-06 10:16 33.01728 27.81304 32115 ft 419 kts 318°
2026-05-06 10:17 33.06172 27.76867 32111 ft 419 kts 318°
2026-05-06 10:17 33.10624 27.72413 32112 ft 418 kts 318°
2026-05-06 10:18 33.15067 27.67964 32112 ft 419 kts 318°
2026-05-06 10:18 33.19530 27.63489 32109 ft 418 kts 318°
2026-05-06 10:19 33.23990 27.59009 32111 ft 418 kts 318°
2026-05-06 10:19 33.28405 27.54571 32109 ft 417 kts 318°
2026-05-06 10:20 33.32845 27.50098 32109 ft 417 kts 318°
2026-05-06 10:20 33.37262 27.45645 32105 ft 417 kts 318°
2026-05-06 10:21 33.41714 27.41149 32106 ft 417 kts 318°
2026-05-06 10:21 33.46111 27.36702 32104 ft 416 kts 318°
2026-05-06 10:22 33.50544 27.32213 32099 ft 416 kts 318°
2026-05-06 10:22 33.54937 27.27758 32103 ft 416 kts 318°
2026-05-06 10:23 33.59362 27.23266 32103 ft 416 kts 318°
2026-05-06 10:23 33.63747 27.18807 32101 ft 415 kts 318°
2026-05-06 10:24 33.68161 27.14312 32099 ft 415 kts 318°
2026-05-06 10:24 33.72573 27.09812 32099 ft 416 kts 318°
2026-05-06 10:25 33.76976 27.05318 32100 ft 415 kts 318°
2026-05-06 10:25 33.81344 27.00848 32098 ft 415 kts 318°
2026-05-06 10:26 33.85735 26.96351 32094 ft 415 kts 319°
2026-05-06 10:26 33.90119 26.91855 32096 ft 415 kts 319°
2026-05-06 10:27 33.94496 26.87356 32095 ft 415 kts 319°
2026-05-06 10:27 33.98903 26.82825 32096 ft 415 kts 319°
2026-05-06 10:28 34.03432 26.78512 32096 ft 415 kts 321°
2026-05-06 10:28 34.08001 26.74283 32095 ft 415 kts 321°
2026-05-06 10:29 34.12581 26.70035 32096 ft 416 kts 321°
2026-05-06 10:29 34.17149 26.65789 32098 ft 416 kts 321°
2026-05-06 10:30 34.21707 26.61545 32096 ft 416 kts 321°
2026-05-06 10:30 34.26298 26.57264 32096 ft 415 kts 321°
2026-05-06 10:31 34.30847 26.53014 32096 ft 415 kts 321°
2026-05-06 10:31 34.35430 26.48727 32096 ft 416 kts 321°
2026-05-06 10:32 34.39982 26.44465 32095 ft 416 kts 321°
2026-05-06 10:32 34.44554 26.40174 32096 ft 416 kts 321°
2026-05-06 10:33 34.49126 26.35881 32096 ft 416 kts 321°
2026-05-06 10:33 34.53690 26.31586 32098 ft 416 kts 321°
2026-05-06 10:34 34.58237 26.27303 32095 ft 416 kts 321°
2026-05-06 10:34 34.62806 26.22994 32097 ft 416 kts 321°
2026-05-06 10:35 34.67365 26.18686 32096 ft 415 kts 321°
2026-05-06 10:35 34.71908 26.14388 32093 ft 415 kts 321°
2026-05-06 10:36 34.76444 26.10089 32093 ft 415 kts 321°
2026-05-06 10:36 34.81006 26.05761 32091 ft 415 kts 321°
2026-05-06 10:37 34.85558 26.01435 32092 ft 416 kts 321°
2026-05-06 10:37 34.90094 25.97118 32090 ft 416 kts 321°
2026-05-06 10:38 34.94649 25.92775 32092 ft 415 kts 321°
2026-05-06 10:38 34.99183 25.88448 32089 ft 416 kts 321°
2026-05-06 10:39 35.03735 25.84093 32090 ft 415 kts 321°
2026-05-06 10:39 35.08277 25.79743 32090 ft 416 kts 321°
2026-05-06 10:40 35.12828 25.75372 32091 ft 416 kts 321°
2026-05-06 10:40 35.17355 25.70999 32093 ft 416 kts 321°
2026-05-06 10:41 35.21879 25.66628 32102 ft 416 kts 321°
2026-05-06 10:41 35.26439 25.62247 32112 ft 416 kts 321°
2026-05-06 10:42 35.30970 25.57886 32117 ft 415 kts 321°
2026-05-06 10:42 35.35494 25.53520 32119 ft 416 kts 321°
2026-05-06 10:43 35.40047 25.49121 32117 ft 416 kts 321°
2026-05-06 10:44 35.46824 25.42558 32106 ft 416 kts 321°
2026-05-06 10:44 35.51365 25.38153 32099 ft 416 kts 321°
2026-05-06 10:45 35.55901 25.33747 32098 ft 418 kts 321°
2026-05-06 10:45 35.60456 25.29313 32094 ft 417 kts 321°
2026-05-06 10:46 35.65011 25.24875 32094 ft 417 kts 321°
2026-05-06 10:46 35.69540 25.20455 32094 ft 417 kts 321°
2026-05-06 10:47 35.74094 25.16002 32092 ft 418 kts 321°
2026-05-06 10:47 35.78622 25.11569 32091 ft 419 kts 321°
2026-05-06 10:48 35.83183 25.07097 32091 ft 419 kts 321°
2026-05-06 10:48 35.87712 25.02649 32091 ft 419 kts 321°
2026-05-06 10:49 35.92266 24.98170 32094 ft 419 kts 321°
2026-05-06 10:49 35.96831 24.93672 32091 ft 419 kts 321°
2026-05-06 10:50 36.01362 24.89199 32092 ft 419 kts 321°
2026-05-06 10:50 36.05906 24.84710 32094 ft 420 kts 321°
2026-05-06 10:51 36.10462 24.80206 32093 ft 420 kts 321°
2026-05-06 10:51 36.15019 24.75692 32092 ft 420 kts 321°
2026-05-06 10:52 36.19550 24.71192 32092 ft 420 kts 321°
2026-05-06 10:52 36.24081 24.66686 32091 ft 419 kts 321°
2026-05-06 10:53 36.28636 24.62149 32092 ft 419 kts 321°
2026-05-06 10:53 36.33166 24.57629 32091 ft 420 kts 321°
2026-05-06 10:54 36.37706 24.53090 32092 ft 419 kts 321°
2026-05-06 10:54 36.42237 24.48553 32092 ft 419 kts 321°
2026-05-06 10:55 36.46753 24.44026 32092 ft 420 kts 321°
2026-05-06 10:55 36.51289 24.39479 32092 ft 420 kts 320°
2026-05-06 10:56 36.55836 24.34911 32090 ft 420 kts 320°
2026-05-06 10:56 36.60343 24.30375 32093 ft 420 kts 320°
2026-05-06 10:57 36.64878 24.25801 32091 ft 420 kts 320°
2026-05-06 10:57 36.69419 24.21213 32090 ft 419 kts 320°
2026-05-06 10:58 36.73915 24.16664 32091 ft 420 kts 320°
2026-05-06 10:58 36.78457 24.12061 32091 ft 420 kts 320°
2026-05-06 10:59 36.82974 24.07476 32090 ft 419 kts 320°
2026-05-06 10:59 36.87489 24.02883 32092 ft 420 kts 320°
2026-05-06 11:00 36.91995 23.98295 32091 ft 420 kts 320°
2026-05-06 11:00 36.96509 23.93705 32093 ft 420 kts 320°
2026-05-06 11:01 37.01040 23.89090 32089 ft 420 kts 320°
2026-05-06 11:01 37.05545 23.84489 32091 ft 420 kts 320°
2026-05-06 11:02 37.10064 23.79866 32089 ft 420 kts 320°
2026-05-06 11:02 37.14578 23.75240 32086 ft 420 kts 320°
2026-05-06 11:03 37.19077 23.70624 32086 ft 420 kts 320°
2026-05-06 11:03 37.23611 23.65962 32081 ft 420 kts 320°
2026-05-06 11:04 37.28100 23.61340 32083 ft 420 kts 320°
2026-05-06 11:04 37.32610 23.56687 32083 ft 420 kts 320°
2026-05-06 11:05 37.37117 23.52033 32081 ft 420 kts 320°
2026-05-06 11:05 37.41625 23.47368 32079 ft 420 kts 320°
2026-05-06 11:06 37.46119 23.42712 32085 ft 420 kts 320°
2026-05-06 11:06 37.50628 23.38030 32091 ft 420 kts 320°
2026-05-06 11:07 37.55141 23.33338 32094 ft 420 kts 319°
2026-05-06 11:07 37.59602 23.28691 32100 ft 420 kts 319°
2026-05-06 11:08 37.64114 23.23986 32093 ft 420 kts 319°
2026-05-06 11:08 37.68615 23.19282 32090 ft 420 kts 319°
2026-05-06 11:09 37.73073 23.14617 32098 ft 420 kts 319°
2026-05-06 11:09 37.77569 23.09902 32105 ft 420 kts 319°
2026-05-06 11:10 37.82045 23.05201 32115 ft 420 kts 319°
2026-05-06 11:10 37.86534 23.00479 32121 ft 420 kts 319°
2026-05-06 11:11 37.91009 22.95762 32126 ft 420 kts 319°
2026-05-06 11:11 37.95460 22.90991 32116 ft 420 kts 318°
2026-05-06 11:12 37.99860 22.86110 32111 ft 419 kts 318°
2026-05-06 11:12 38.04243 22.81235 32101 ft 420 kts 318°
2026-05-06 11:13 38.08602 22.76387 32087 ft 420 kts 318°
2026-05-06 11:13 38.13012 22.71477 32079 ft 420 kts 318°
2026-05-06 11:14 38.17375 22.66612 32077 ft 421 kts 318°
2026-05-06 11:14 38.21781 22.61692 32079 ft 421 kts 317°
2026-05-06 11:15 38.26173 22.56780 32074 ft 421 kts 318°
2026-05-06 11:15 38.30542 22.51883 32082 ft 421 kts 318°
2026-05-06 11:16 38.34960 22.46927 32104 ft 422 kts 318°
2026-05-06 11:16 38.39340 22.42003 32122 ft 422 kts 317°
2026-05-06 11:17 38.43716 22.37076 32136 ft 422 kts 318°
2026-05-06 11:17 38.48121 22.32107 32148 ft 422 kts 317°
2026-05-06 11:18 38.52494 22.27166 32157 ft 422 kts 317°
2026-05-06 11:18 38.56889 22.22192 32158 ft 422 kts 317°
2026-05-06 11:19 38.61261 22.17234 32152 ft 422 kts 317°
2026-05-06 11:19 38.65628 22.12277 32148 ft 423 kts 317°
2026-05-06 11:20 38.70024 22.07276 32144 ft 423 kts 317°
2026-05-06 11:20 38.74397 22.02293 32144 ft 423 kts 317°
2026-05-06 11:21 38.78809 21.97258 32143 ft 423 kts 317°
2026-05-06 11:21 38.83158 21.92284 32138 ft 423 kts 317°
2026-05-06 11:22 38.87567 21.87234 32135 ft 423 kts 317°
2026-05-06 11:22 38.91928 21.82230 32135 ft 423 kts 317°
2026-05-06 11:23 38.96310 21.77193 32137 ft 424 kts 317°
2026-05-06 11:23 39.00699 21.72141 32137 ft 424 kts 317°
2026-05-06 11:24 39.05064 21.67106 32129 ft 423 kts 317°
2026-05-06 11:24 39.09437 21.62055 32125 ft 424 kts 317°
2026-05-06 11:25 39.13808 21.56996 32126 ft 424 kts 317°
2026-05-06 11:25 39.18191 21.51914 32128 ft 424 kts 317°
2026-05-06 11:26 39.22571 21.46827 32135 ft 424 kts 317°
2026-05-06 11:26 39.26950 21.41733 32143 ft 425 kts 316°
2026-05-06 11:27 39.31335 21.36622 32146 ft 425 kts 317°
2026-05-06 11:27 39.35704 21.31520 32151 ft 424 kts 316°
2026-05-06 11:28 39.40060 21.26427 32157 ft 425 kts 316°
2026-05-06 11:28 39.44440 21.21294 32165 ft 425 kts 316°
2026-05-06 11:29 39.48787 21.16192 32161 ft 425 kts 316°
2026-05-06 11:29 39.53177 21.11029 32155 ft 425 kts 316°
2026-05-06 11:30 39.57519 21.05916 32142 ft 425 kts 316°
2026-05-06 11:30 39.61906 21.00738 32131 ft 426 kts 316°
2026-05-06 11:31 39.66264 20.95587 32127 ft 426 kts 316°
2026-05-06 11:31 39.70638 20.90407 32125 ft 426 kts 316°
2026-05-06 11:32 39.74979 20.85257 32118 ft 426 kts 316°
2026-05-06 11:32 39.79347 20.80065 32122 ft 426 kts 316°
2026-05-06 11:33 39.83707 20.74872 32130 ft 426 kts 316°
2026-05-06 11:33 39.88086 20.69650 32155 ft 427 kts 316°
2026-05-06 11:34 39.92441 20.64443 32162 ft 427 kts 316°
2026-05-06 11:34 39.96799 20.59225 32158 ft 427 kts 315°
2026-05-06 11:35 40.01162 20.53989 32154 ft 427 kts 315°
2026-05-06 11:35 40.05518 20.48792 32144 ft 428 kts 317°
2026-05-06 11:36 40.10189 20.43959 32140 ft 429 kts 321°
2026-05-06 11:36 40.14966 20.39360 32139 ft 429 kts 322°
2026-05-06 11:37 40.19772 20.34735 32140 ft 429 kts 321°
2026-05-06 11:37 40.24586 20.30089 32141 ft 429 kts 321°
2026-05-06 11:38 40.29358 20.25470 32140 ft 429 kts 321°
2026-05-06 11:38 40.34146 20.20826 32135 ft 429 kts 321°
2026-05-06 11:39 40.38894 20.16212 32128 ft 429 kts 321°
2026-05-06 11:39 40.43675 20.11558 32122 ft 429 kts 321°
2026-05-06 11:40 40.48474 20.06877 32119 ft 430 kts 321°
2026-05-06 11:40 40.53254 20.02209 32116 ft 430 kts 321°
2026-05-06 11:41 40.58047 19.97517 32111 ft 430 kts 321°
2026-05-06 11:41 40.62801 19.92855 32106 ft 430 kts 321°
2026-05-06 11:42 40.67575 19.88167 32102 ft 430 kts 321°
2026-05-06 11:42 40.72365 19.83452 32097 ft 431 kts 321°
2026-05-06 11:43 40.77142 19.78741 32091 ft 431 kts 321°
2026-05-06 11:43 40.81937 19.74005 32083 ft 431 kts 321°
2026-05-06 11:44 40.89053 19.66960 32081 ft 432 kts 321°
2026-05-06 11:44 40.93840 19.62209 32080 ft 432 kts 321°
2026-05-06 11:45 40.98654 19.57423 32079 ft 432 kts 321°
2026-05-06 11:45 41.03451 19.52644 32075 ft 432 kts 321°
2026-05-06 11:46 41.08245 19.47860 32073 ft 433 kts 320°
2026-05-06 11:46 41.13022 19.43085 32073 ft 433 kts 321°
2026-05-06 11:47 41.17838 19.38263 32072 ft 434 kts 320°
2026-05-06 11:47 41.22646 19.33441 32075 ft 434 kts 320°
2026-05-06 11:48 41.27431 19.28631 32073 ft 434 kts 320°
2026-05-06 11:48 41.32221 19.23806 32076 ft 435 kts 320°
2026-05-06 11:49 41.37016 19.18964 32074 ft 435 kts 320°
2026-05-06 11:49 41.41866 19.14057 32336 ft 440 kts 320°
2026-05-06 11:50 41.44299 19.11593 32653 ft 438 kts 320°
2026-05-06 11:50 41.46714 19.09145 32937 ft 437 kts 319°
2026-05-06 11:50 41.49118 19.06697 33181 ft 437 kts 319°
2026-05-06 11:50 41.51533 19.04233 33417 ft 437 kts 319°
2026-05-06 11:51 41.53932 19.01781 33656 ft 437 kts 319°
2026-05-06 11:51 41.56343 18.99312 33890 ft 436 kts 319°
2026-05-06 11:51 41.58712 18.96887 34078 ft 436 kts 319°
2026-05-06 11:51 41.61134 18.94402 34081 ft 437 kts 319°
2026-05-06 11:52 41.65930 18.89476 34086 ft 437 kts 319°
2026-05-06 11:52 41.70733 18.84537 34088 ft 437 kts 319°
2026-05-06 11:53 41.75504 18.79625 34073 ft 437 kts 319°
2026-05-06 11:53 41.80322 18.74651 34085 ft 437 kts 319°
2026-05-06 11:54 41.85100 18.69708 34077 ft 437 kts 319°
2026-05-06 11:54 41.89885 18.64745 34083 ft 437 kts 319°
2026-05-06 11:55 41.94694 18.59748 34080 ft 437 kts 319°
2026-05-06 11:55 41.99459 18.54756 34076 ft 437 kts 317°
2026-05-06 11:56 42.03923 18.49304 34077 ft 435 kts 311°
2026-05-06 11:56 42.08125 18.43518 34071 ft 435 kts 311°
2026-05-06 11:57 42.12318 18.37688 34066 ft 435 kts 311°
2026-05-06 11:57 42.16488 18.31887 34068 ft 434 kts 310°
2026-05-06 11:58 42.20656 18.26086 34062 ft 435 kts 310°
2026-05-06 11:58 42.24844 18.20246 34058 ft 435 kts 310°
2026-05-06 11:59 42.29032 18.14394 34062 ft 435 kts 310°
2026-05-06 11:59 42.33229 18.08518 34061 ft 435 kts 310°
2026-05-06 12:00 42.37394 18.02675 34058 ft 436 kts 310°
2026-05-06 12:00 42.41563 17.96817 34053 ft 436 kts 310°
2026-05-06 12:01 42.45761 17.90905 34052 ft 436 kts 310°
2026-05-06 12:01 42.49929 17.85022 34051 ft 436 kts 310°
2026-05-06 12:02 42.54121 17.79094 34047 ft 436 kts 310°
2026-05-06 12:02 42.58276 17.73206 34045 ft 436 kts 310°
2026-05-06 12:03 42.62448 17.67282 34039 ft 437 kts 310°
2026-05-06 12:03 42.66640 17.61309 34040 ft 437 kts 310°
2026-05-06 12:04 42.70795 17.55381 34043 ft 436 kts 310°
2026-05-06 12:04 42.74991 17.49382 34045 ft 437 kts 310°
2026-05-06 12:05 42.79159 17.43411 34042 ft 437 kts 310°
2026-05-06 12:05 42.83311 17.37452 34040 ft 437 kts 310°
2026-05-06 12:06 42.87487 17.31446 34038 ft 437 kts 309°
2026-05-06 12:06 42.91641 17.25459 34039 ft 437 kts 309°
2026-05-06 12:07 42.95821 17.19424 34039 ft 438 kts 309°
2026-05-06 12:07 42.99955 17.13440 34038 ft 438 kts 309°
2026-05-06 12:08 43.04122 17.07399 34034 ft 438 kts 309°
2026-05-06 12:08 43.08290 17.01340 34030 ft 438 kts 309°
2026-05-06 12:09 43.12450 16.95282 34026 ft 438 kts 309°
2026-05-06 12:09 43.16598 16.89225 34025 ft 438 kts 309°
2026-05-06 12:10 43.20742 16.83161 34024 ft 438 kts 309°
2026-05-06 12:10 43.24883 16.77090 34017 ft 438 kts 309°
2026-05-06 12:11 43.29045 16.70977 34018 ft 438 kts 309°
2026-05-06 12:11 43.33159 16.64920 34019 ft 438 kts 309°
2026-05-06 12:12 43.37306 16.58803 34014 ft 439 kts 309°
2026-05-06 12:12 43.41411 16.52735 34013 ft 438 kts 309°
2026-05-06 12:13 43.45547 16.46607 34008 ft 438 kts 309°
2026-05-06 12:13 43.49670 16.40487 34006 ft 438 kts 309°
2026-05-06 12:14 43.53793 16.34351 34008 ft 438 kts 309°
2026-05-06 12:14 43.57905 16.28221 34009 ft 438 kts 308°
2026-05-06 12:15 43.62022 16.22070 34007 ft 437 kts 308°
2026-05-06 12:15 43.66113 16.15942 34008 ft 437 kts 308°
2026-05-06 12:16 43.70228 16.09768 34009 ft 437 kts 308°
2026-05-06 12:16 43.74330 16.03597 34009 ft 437 kts 308°
2026-05-06 12:17 43.78423 15.97430 34005 ft 436 kts 308°
2026-05-06 12:17 43.82511 15.91256 34001 ft 435 kts 308°
2026-05-06 12:18 43.86563 15.85117 33998 ft 435 kts 308°
2026-05-06 12:18 43.90630 15.78946 33997 ft 435 kts 308°
2026-05-06 12:19 43.94699 15.72760 33997 ft 435 kts 307°
2026-05-06 12:19 43.98754 15.66582 33997 ft 434 kts 307°
2026-05-06 12:20 44.02793 15.60413 33996 ft 433 kts 307°
2026-05-06 12:20 44.06839 15.54219 33994 ft 434 kts 307°
2026-05-06 12:21 44.10861 15.48049 33991 ft 433 kts 307°
2026-05-06 12:21 44.14918 15.41810 33990 ft 434 kts 307°
2026-05-06 12:22 44.18944 15.35609 33989 ft 433 kts 307°
2026-05-06 12:22 44.22973 15.29388 33989 ft 433 kts 306°
2026-05-06 12:23 44.26971 15.23199 33986 ft 433 kts 306°
2026-05-06 12:23 44.30999 15.16952 33986 ft 433 kts 306°
2026-05-06 12:24 44.34999 15.10736 33987 ft 433 kts 306°
2026-05-06 12:24 44.39002 15.04500 33984 ft 432 kts 306°
2026-05-06 12:25 44.42980 14.98287 33982 ft 433 kts 306°
2026-05-06 12:25 44.46943 14.92087 33983 ft 433 kts 306°
2026-05-06 12:26 44.50922 14.85850 33979 ft 433 kts 306°
2026-05-06 12:26 44.54879 14.79629 33978 ft 432 kts 306°
2026-05-06 12:27 44.58862 14.73355 33981 ft 431 kts 306°
2026-05-06 12:27 44.62807 14.67128 33973 ft 431 kts 306°
2026-05-06 12:28 44.66742 14.60904 33972 ft 431 kts 306°
2026-05-06 12:28 44.70708 14.54615 33972 ft 430 kts 306°
2026-05-06 12:29 44.74636 14.48371 33974 ft 430 kts 305°
2026-05-06 12:29 44.78581 14.42091 33970 ft 429 kts 305°
2026-05-06 12:30 44.82523 14.35795 33975 ft 428 kts 305°
2026-05-06 12:30 44.86387 14.29612 33976 ft 428 kts 304°
2026-05-06 12:31 44.90308 14.23329 33978 ft 427 kts 304°
2026-05-06 12:31 44.94189 14.17089 33977 ft 427 kts 304°
2026-05-06 12:32 44.98089 14.10809 33982 ft 426 kts 304°
2026-05-06 12:32 45.01984 14.04524 33976 ft 425 kts 304°
2026-05-06 12:33 45.05846 13.98274 33977 ft 425 kts 304°
2026-05-06 12:33 45.09713 13.92004 33973 ft 424 kts 304°
2026-05-06 12:34 45.13599 13.85690 33965 ft 425 kts 304°
2026-05-06 12:34 45.17457 13.79399 33963 ft 425 kts 304°
2026-05-06 12:35 45.21327 13.73084 33957 ft 425 kts 303°
2026-05-06 12:35 45.25166 13.66805 33953 ft 425 kts 303°
2026-05-06 12:36 45.29005 13.60507 33950 ft 425 kts 303°
2026-05-06 12:36 45.32819 13.54239 33945 ft 426 kts 303°
2026-05-06 12:37 45.36636 13.47948 33945 ft 426 kts 303°
2026-05-06 12:37 45.40444 13.41660 33941 ft 425 kts 303°
2026-05-06 12:38 45.44244 13.35371 33940 ft 427 kts 303°
2026-05-06 12:38 45.48093 13.29063 33938 ft 428 kts 304°
2026-05-06 12:39 45.52266 13.23146 33934 ft 431 kts 308°
2026-05-06 12:39 45.56588 13.17341 33932 ft 432 kts 308°
2026-05-06 12:40 45.60927 13.11502 33934 ft 431 kts 308°
2026-05-06 12:40 45.65250 13.05664 33932 ft 433 kts 308°
2026-05-06 12:41 45.69610 12.99755 33930 ft 432 kts 308°
2026-05-06 12:41 45.73960 12.93850 33930 ft 432 kts 308°
2026-05-06 12:42 45.78302 12.87943 33929 ft 432 kts 308°
2026-05-06 12:42 45.82643 12.82018 33931 ft 432 kts 308°
2026-05-06 12:43 45.86954 12.76125 33930 ft 431 kts 307°
2026-05-06 12:43 45.91298 12.70170 33931 ft 433 kts 307°
2026-05-06 12:44 45.95606 12.64252 33932 ft 431 kts 307°
2026-05-06 12:44 45.99948 12.58272 33930 ft 431 kts 307°
2026-05-06 12:45 46.04275 12.52299 33930 ft 433 kts 307°
2026-05-06 12:46 46.10755 12.43333 33927 ft 432 kts 307°
2026-05-06 12:46 46.15058 12.37361 33930 ft 432 kts 307°
2026-05-06 12:47 46.19375 12.31354 33936 ft 433 kts 306°
2026-05-06 12:47 46.23694 12.25333 33939 ft 431 kts 307°
2026-05-06 12:48 46.27999 12.19316 33936 ft 431 kts 307°
2026-05-06 12:48 46.32269 12.13338 33935 ft 433 kts 306°
2026-05-06 12:49 46.36601 12.07250 33933 ft 434 kts 307°
2026-05-06 12:49 46.40911 12.01186 33931 ft 434 kts 307°
2026-05-06 12:50 46.45215 11.95116 33927 ft 435 kts 307°
2026-05-06 12:50 46.49536 11.89007 33925 ft 435 kts 307°
2026-05-06 12:51 46.53858 11.82881 33924 ft 436 kts 307°
2026-05-06 12:51 46.58187 11.76730 33930 ft 435 kts 307°
2026-05-06 12:52 46.62441 11.70528 33938 ft 434 kts 305°
2026-05-06 12:52 46.66570 11.64195 33943 ft 434 kts 304°
2026-05-06 12:53 46.70716 11.57803 33936 ft 433 kts 305°
2026-05-06 12:53 46.74817 11.51470 33925 ft 436 kts 305°
2026-05-06 12:54 46.78961 11.45064 33920 ft 435 kts 305°
2026-05-06 12:54 46.83114 11.38630 33919 ft 435 kts 305°
2026-05-06 12:55 46.87253 11.32200 33918 ft 436 kts 304°
2026-05-06 12:55 46.91409 11.25751 33915 ft 437 kts 305°
2026-05-06 12:56 46.95867 11.19719 33913 ft 444 kts 311°
2026-05-06 12:56 47.00815 11.14234 33913 ft 450 kts 315°
2026-05-06 12:57 47.05875 11.08908 33917 ft 450 kts 316°
2026-05-06 12:57 47.10940 11.03562 33909 ft 450 kts 315°
2026-05-06 12:58 47.16040 10.98154 33917 ft 451 kts 315°
2026-05-06 12:58 47.21096 10.92769 33910 ft 452 kts 316°
2026-05-06 12:59 47.26165 10.87362 33903 ft 451 kts 316°
2026-05-06 12:59 47.31235 10.81934 33893 ft 453 kts 316°
2026-05-06 13:00 47.36293 10.76511 33893 ft 454 kts 316°
2026-05-06 13:00 47.41368 10.71051 33868 ft 453 kts 316°
2026-05-06 13:01 47.46469 10.65555 33864 ft 455 kts 316°
2026-05-06 13:01 47.51550 10.60064 33858 ft 455 kts 316°
2026-05-06 13:02 47.56647 10.54542 33851 ft 456 kts 316°
2026-05-06 13:02 47.61736 10.49018 33841 ft 455 kts 316°
2026-05-06 13:03 47.66846 10.43452 33832 ft 456 kts 316°
2026-05-06 13:03 47.71931 10.37901 33827 ft 457 kts 316°
2026-05-06 13:04 47.76939 10.32174 33819 ft 454 kts 313°
2026-05-06 13:04 47.81819 10.26231 33817 ft 453 kts 313°
2026-05-06 13:05 47.86669 10.20291 33811 ft 454 kts 313°
2026-05-06 13:05 47.91523 10.14345 33809 ft 454 kts 313°
2026-05-06 13:06 47.96401 10.08362 33809 ft 454 kts 313°
2026-05-06 13:06 48.01258 10.02389 33804 ft 455 kts 313°
2026-05-06 13:07 48.06100 9.96422 33810 ft 454 kts 313°
2026-05-06 13:07 48.10939 9.90441 33808 ft 454 kts 313°
2026-05-06 13:08 48.15788 9.84430 33805 ft 454 kts 313°
2026-05-06 13:08 48.20628 9.78420 33811 ft 454 kts 313°
2026-05-06 13:09 48.25494 9.72362 33794 ft 454 kts 313°
2026-05-06 13:09 48.30326 9.66329 33800 ft 454 kts 314°
2026-05-06 13:10 48.35141 9.60288 33805 ft 455 kts 314°
2026-05-06 13:10 48.39960 9.54127 33810 ft 454 kts 313°
2026-05-06 13:11 48.44737 9.47996 33801 ft 455 kts 313°
2026-05-06 13:11 48.49527 9.41837 33801 ft 455 kts 314°
2026-05-06 13:12 48.54344 9.35633 33802 ft 455 kts 314°
2026-05-06 13:12 48.59255 9.29664 33808 ft 459 kts 318°
2026-05-06 13:13 48.64635 9.24457 33823 ft 464 kts 325°
2026-05-06 13:13 48.70331 9.20221 33808 ft 468 kts 331°
2026-05-06 13:14 48.76188 9.16402 33821 ft 468 kts 332°
2026-05-06 13:14 48.81946 9.12630 33822 ft 468 kts 332°
2026-05-06 13:15 48.87695 9.08873 33824 ft 469 kts 334°
2026-05-06 13:15 48.93711 9.05640 33819 ft 471 kts 338°
2026-05-06 13:16 48.99854 9.02581 33846 ft 471 kts 338°
2026-05-06 13:16 49.05994 8.99510 33819 ft 469 kts 338°
2026-05-06 13:17 49.12177 8.96392 33808 ft 469 kts 338°
2026-05-06 13:17 49.18338 8.93272 33797 ft 468 kts 338°
2026-05-06 13:18 49.24440 8.90171 33803 ft 468 kts 338°
2026-05-06 13:18 49.30566 8.87050 33803 ft 466 kts 338°
2026-05-06 13:19 49.36667 8.83934 33800 ft 466 kts 338°
2026-05-06 13:19 49.42860 8.80970 33785 ft 466 kts 340°
2026-05-06 13:20 49.49048 8.78275 33793 ft 466 kts 341°
2026-05-06 13:20 49.55233 8.75585 33515 ft 458 kts 341°
2026-05-06 13:20 49.58280 8.74254 32986 ft 458 kts 340°
2026-05-06 13:21 49.61343 8.72911 32478 ft 458 kts 340°
2026-05-06 13:21 49.64388 8.71572 31974 ft 457 kts 340°
2026-05-06 13:21 49.67454 8.70222 31318 ft 458 kts 339°
2026-05-06 13:21 49.70476 8.68885 30544 ft 461 kts 339°
2026-05-06 13:22 49.73584 8.67501 29706 ft 464 kts 340°
2026-05-06 13:22 49.76648 8.66139 28965 ft 464 kts 340°
2026-05-06 13:22 49.79724 8.64773 28264 ft 462 kts 340°
2026-05-06 13:22 49.82773 8.63419 27554 ft 461 kts 341°
2026-05-06 13:23 49.85835 8.62058 26812 ft 460 kts 341°
2026-05-06 13:23 49.88922 8.60684 26036 ft 459 kts 341°
2026-05-06 13:23 49.91952 8.59335 25306 ft 456 kts 341°
2026-05-06 13:23 49.94959 8.57996 24799 ft 448 kts 341°